Meteo Giornale » Osservazioni meteo Germania » Oberpfaffenhofen

ore: 07:50 - Osservazioni Meteo Oberpfaffenhofen
Lat. 48° 5' N Lon. 11° 17' E Alt. 600 metri s.l.m.

sereno

13 °C

Sereno

Temp. 24 Ore

9 °C

23 °C

Nord

5.5 Km/h

Dew point 13 °C

Umidità 100 %

Visibilità  10 Km

Il sole sorge alle ore 06:34

Il sole tramonta alle ore 19:54

Data e Ora Cielo e Fenomeni T °C DP °C Um. % Pres. hPa Vis. km Vento km/h
Oggi h: 07:50 sereno Sereno 13 13 100 1022 10 N 5.5
Oggi h: 07:20 sereno Sereno 10 10 100 1022 10 N 5.5
Oggi h: 06:50 sereno Sereno 9 8 93 1022 10 N 3.7
Oggi h: 06:20 sereno Sereno 9 9 100 1022 10 N 5.5
Oggi h: 05:50 sereno Sereno 9 9 100 1022 10 N 5.5
Oggi h: 05:20 sereno Sereno 9 8 93 1022 10 N 1.8
Oggi h: 04:50 sereno Sereno 10 9 93 1022 10 N 1.8
Oggi h: 04:20 sereno Sereno 10 9 93 1022 10 N 5.5
Oggi h: 03:50 sereno Sereno 10 9 93 1022 10 N 5.5
Oggi h: 03:20 sereno Sereno 11 9 87 1022 10 N 5.5
Oggi h: 02:50 sereno Sereno 11 10 93 1023 10 N 3.7
Oggi h: 02:20 sereno Sereno 11 10 93 1023 10 S 7.4
Oggi h: 01:50 sereno Sereno 11 10 93 1023 10 N 5.5
Oggi h: 01:20 sereno Sereno 11 10 93 1023 10 N 3.7
Oggi h: 00:50 sereno Sereno 12 10 87 1023 10 N 3.7
Oggi h: 00:20 sereno Sereno 13 11 87 1023 10 N 5.5
Ieri h: 23:50 sereno Sereno 12 11 93 1023 10 S 7.4
Ieri h: 23:20 sereno Sereno 12 10 87 1023 10 N 5.5
Ieri h: 22:50 sereno Sereno 13 11 87 1023 10 N 5.5
Ieri h: 22:20 sereno Sereno 13 11 87 1023 10 N 0
Ieri h: 21:50 sereno Sereno 15 12 82 1023 10 N 3.7
Ieri h: 21:20 sereno Sereno 15 11 76 1022 10 N 3.7
Ieri h: 20:50 sereno Sereno 17 12 72 1022 10 N 5.5
Ieri h: 20:20 sereno Sereno 18 11 63 1022 10 N 5.5
Ieri h: 19:50 sereno Sereno 20 11 56 1022 10 N/NO 9.3
Ieri h: 19:20 sereno Sereno 21 11 52 1022 10 N/NO 11.1
Ieri h: 18:50 poco_nuvoloso Poco Nuvoloso 22 11 49 1022 10 NO 11.1
Ieri h: 18:20 poco_nuvoloso Poco Nuvoloso 22 11 49 1022 10 N/NO 11.1
Ieri h: 17:50 poco_nuvoloso Poco Nuvoloso 23 10 43 1021 10 O 14.8
Ieri h: 17:20 poco_nuvoloso Poco Nuvoloso 23 11 46 1021 10 O 11.1
Ieri h: 16:50 poco_nuvoloso Poco Nuvoloso 23 10 43 1022 10 O 16.7
Ieri h: 16:20 poco_nuvoloso Poco Nuvoloso 23 10 43 1022 10 O/NO 14.8
Ieri h: 15:50 poco_nuvoloso Poco Nuvoloso 23 10 43 1022 10 O 14.8
Ieri h: 15:20 poco_nuvoloso Poco Nuvoloso 23 10 43 1022 10 O/NO 14.8
Ieri h: 14:50 sereno Sereno 23 11 46 1022 10 O 16.7
Ieri h: 14:20 sereno Sereno 23 11 46 1022 10 O/SO 13
Ieri h: 13:50 poco_nuvoloso Poco Nuvoloso 21 11 52 1023 10 O/NO 9.3
Ieri h: 13:20 molto_nuvoloso Molto Nuvoloso 21 11 52 1023 10 N/NO 11.1
Ieri h: 12:50 nuvoloso Nuvoloso 22 12 53 1023 10 S/SO 14.8
Ieri h: 12:20 nuvoloso Nuvoloso 22 12 53 1023 10 O/SO 11.1
Ieri h: 11:50 molto_nuvoloso Molto Nuvoloso 21 11 52 1023 10 O/SO 11.1
Ieri h: 11:20 nuvoloso Nuvoloso 21 11 52 1023 10 O/SO 9.3
Ieri h: 10:50 poco_nuvoloso Poco Nuvoloso 20 11 56 1023 10 N 5.5
Ieri h: 10:20 sereno Sereno 19 10 55 1023 10 N 5.5
Ieri h: 09:50 sereno Sereno 19 11 59 1023 10 N 5.5
Ieri h: 09:20 sereno Sereno 18 12 67 1023 10 S/SO 7.4
Ieri h: 08:50 sereno Sereno 18 12 67 1023 10 S/SO 7.4